sat.trackr.live / text

‹ back to catalog

STARLINK-5612

NORAD 55754 · 2023-028P

PAYLOAD ACTIVE UNKNOWN

§ Identity

Operator
Country
US
Launch date
2023-03-03
Launch site
AFWTR
Launch vehicle
Mass (kg)
RCS (m²)

Purposes: comms

External: N2YO · Heavens-Above · Gunter

§ Orbital elements

Epoch: 2026-05-25T01:43:56.124768Z

Period
96.11 min
Inclination
70.0003°
Eccentricity
0.0002719
Mean motion
14.98328612 rev/d
Perigee alt
570.2 km
Apogee alt
573.9 km
Semi-major
6,950.2 km
B*
5.7180e-6
RAAN
51.7871°
Arg perigee
269.7167°
Mean anomaly
90.3680°
Rev number
17,748

§ Raw data

STARLINK-56121 55754U 23028P   26145.07217737 -.00000025  00000+0  57180-5 0  99962 55754  70.0003  51.7871 0002719 269.7167  90.3680 14.98328612177481

JSON: /api/v1/satellites/55754 · /tle

For live sub-satellite position, see the globe view (requires WebGL).

§ Visibility from observer

Set your observer location to see the next 7 days of passes ≥ 10°. The values pass through the URL so the page stays shareable.

No JS? Fill the form by hand. The geolocation button needs JavaScript.